Location: Kilkare Woods
(37.6283°N, 121.9122°W)
Time: 18:41:20
(UTC+00:00)

Daily predictions for brighter satellites

Satellite Brightness Start Highest point End
(mag) Time Altitude Azimuth Time Altitude Azimuth Time Altitude Azimuth
CZ-3B R/B 3.9 12:07:05 20° S 12:07:41 20° S 12:11:44 10° SE
Centaur D AC-28 3.4 12:15:11 38° S 12:15:36 38° S 12:27:10 10° ESE
CZ-3B R/B 4.3 12:19:34 13° SSE 12:19:34 13° SSE 12:21:40 10° SE
Cosmos 2112 Rocket 4.3 12:20:57 61° SE 12:20:57 61° SE 12:25:25 10° SSE
CZ-2C R/B 3.4 12:17:37 10° NNE 12:20:43 38° NE 12:20:43 38° NE
Cosmos 1680 Rocket 4.2 12:28:05 44° S 12:28:05 44° S 12:31:38 10° SSE
ASTEX 1 3.9 12:21:46 10° SSE 12:26:37 58° E 12:30:27 16° N
In-Cosmos 22 Rocket 4.4 12:28:36 10° S 12:33:53 65° E 12:39:18 10° NNE
STARLINK-69 4.4 12:38:06 47° ENE 12:38:06 47° ENE 12:41:08 10° NE
Cosmos 1153 Rocket 4.3 12:31:22 10° S 12:37:31 81° W 12:43:40 10° N
Cosmos 2082 Rocket 4.2 12:41:30 14° N 12:41:30 14° N 12:42:28 10° N
STARLINK-66 4.3 12:39:44 50° ENE 12:39:44 50° ENE 12:42:52 10° NE
STARLINK-41 4.2 12:41:13 52° NE 12:41:13 52° NE 12:44:26 10° NE
OAO 2 Rocket 3.5 12:40:46 61° SSW 12:40:50 61° S 12:45:52 10° ESE
STARLINK-64 4.2 12:42:54 53° NE 12:42:54 53° NE 12:46:07 10° NE
Cosmos 2173 Rocket 4.4 12:35:49 10° S 12:41:58 62° E 12:48:05 10° NNE
STARLINK-70 4.1 12:44:26 56° NE 12:44:26 56° NE 12:47:45 10° NE
STARLINK-68 4.1 12:46:14 55° NE 12:46:14 55° NE 12:49:32 10° NE
STARLINK-58 3.9 12:47:29 59° NE 12:47:29 59° NE 12:50:54 10° NE
STARLINK-62 3.9 12:49:24 58° NNE 12:49:24 58° NNE 12:52:50 10° NE
STARLINK-63 3.8 12:50:52 63° NNE 12:50:52 63° NNE 12:54:26 10° NE
STARLINK 3.6 12:52:05 72° NNE 12:52:05 72° NNE 12:55:52 10° NE
STARLINK-72 3.7 12:53:56 68° N 12:53:56 68° N 12:57:40 10° NE
ATLAS CENTAUR R/B 1.9 12:52:07 23° SSW 12:55:12 76° ESE 13:00:03 10° NE
Meteor 2-2 Rocket 4.4 12:56:31 48° WSW 12:56:31 48° WSW 13:01:40 10° SSW
STARLINK-59 3.6 12:57:17 64° N 12:57:17 64° N 13:01:04 10° NE
STARLINK-57 3.6 12:58:54 64° NNW 12:58:54 64° NNW 13:02:46 10° NE
STARLINK-28 3.6 13:02:05 60° NNW 13:02:05 60° NNW 13:06:02 10° NE
STARLINK-53 3.6 13:03:14 60° NNW 13:03:14 60° NNW 13:07:16 10° NE
STARLINK-75 3.8 13:03:40 51° NNW 13:03:40 51° NNW 13:07:28 10° NE
STARLINK-54 3.7 13:05:16 57° NW 13:05:16 57° NW 13:09:20 10° NE
OAO 3 Rocket 3.4 13:04:59 45° WSW 13:06:13 61° S 13:10:57 10° ESE
COBE Rocket 3.9 13:01:23 10° SSE 13:06:32 89° E 13:11:38 10° N
Shenzhou-11 Module 3.1 13:07:26 35° ENE 13:07:26 35° ENE 13:09:22 10° E
STARLINK-37 3.7 13:09:42 51° NW 13:09:51 51° NW 13:13:56 10° NE
STARLINK-55 3.7 13:09:59 52° NW 13:10:12 53° NW 13:14:16 10° NE
Cosmos 2360 Rocket 3.9 13:06:04 10° N 13:11:03 30° ENE 13:15:59 10° ESE
STARLINK-34 3.8 13:11:41 49° NW 13:11:56 50° NW 13:15:58 10° NE
STARLINK-24 3.8 13:12:01 49° NW 13:12:17 50° NW 13:16:21 10° NE
STARLINK-81 3.7 13:12:57 50° WNW 13:13:24 53° NW 13:17:28 10° NE
Cosmos 1408 Rocket 3.7 13:09:23 10° S 13:13:39 72° E 13:17:59 10° NNE
Cosmos 1937 Rocket 3.9 13:14:05 36° WNW 13:14:05 36° WNW 13:18:49 10° N
SL-16 R/B 2.3 13:08:53 11° NNW 13:14:19 77° ENE 13:19:58 10° SSE
Cosmos 2151 3.0 13:12:30 10° SSW 13:16:44 57° W 13:20:59 10° N
STARLINK-77 3.8 13:16:09 45° WNW 13:16:44 49° NW 13:20:47 10° NE
Cosmos 1980 Rocket 3.0 13:17:03 28° WSW 13:17:03 28° WSW 13:21:34 10° SSW
STARLINK-25 3.9 13:17:49 43° WNW 13:18:29 48° NW 13:22:30 10° NE
STARLINK-71 4.0 13:19:45 40° WNW 13:20:20 42° NW 13:24:18 10° NE
STARLINK-79 3.9 13:20:54 40° WNW 13:21:41 45° NW 13:25:41 10° NE
Cosmos 2322 Rocket 2.3 13:16:42 10° NNW 13:22:23 76° ENE 13:28:04 10° SSE
Delta 2 Rocket 4.0 13:20:52 26° WSW 13:23:14 57° SSE 13:28:10 10° E
STARLINK-78 4.0 13:22:36 38° WNW 13:23:27 43° NW 13:27:25 10° NE
Cosmos 1459 Rocket 4.0 13:17:38 10° SSW 13:23:43 60° W 13:29:56 10° N
COSMOS 2455 2.8 13:21:09 14° NNW 13:26:27 81° WSW 13:32:26 10° SSE
MOS 1-B 4.3 13:20:44 10° NNE 13:26:34 86° WNW 13:32:21 10° SSW
STARLINK-49 4.1 13:25:45 35° WNW 13:26:44 41° NW 13:30:41 10° NE
STARLINK-27 4.1 13:27:21 33° WNW 13:28:25 40° NW 13:32:20 10° NE
COSMOS 2487 2.3 13:25:54 10° SSW 13:29:18 64° WNW 13:32:45 10° N
Cosmos 1766 Rocket 3.8 13:25:14 10° SSW 13:29:21 44° W 13:33:32 10° N
STARLINK-74 4.2 13:28:59 32° WNW 13:30:07 39° NW 13:34:01 10° NE
Cosmos 1825 2.1 13:26:26 10° S 13:30:11 86° E 13:33:58 10° N
SL-4 R/B 3.5 13:27:39 17° NNW 13:30:56 37° NNE 13:35:24 10° E
Cosmos 1484 Rocket 2.9 13:27:21 10° N 13:31:18 55° WNW 13:35:12 10° SSW
Cosmos 1125 Rocket 4.0 13:26:25 10° S 13:31:38 64° ESE 13:36:50 10° NNE
STARLINK-39 4.2 13:30:36 30° WNW 13:31:48 38° NW 13:35:41 10° NE
Cosmos 2150 Rocket 4.0 13:26:44 10° SSW 13:32:09 66° WNW 13:37:34 10° NNE
Cosmos 1725 Rocket 4.1 13:26:25 10° S 13:32:39 85° E 13:38:59 10° N
STARLINK 4.2 13:32:10 29° WNW 13:33:26 36° NW 13:37:17 10° NE
Cosmos 2016 Rocket 3.9 13:27:50 10° SSW 13:34:03 74° W 13:40:24 10° N
STARLINK-42 4.3 13:32:56 28° WNW 13:34:09 35° NW 13:37:59 10° NNE
Helios 1A Rocket 3.3 13:30:22 10° NNE 13:34:26 66° ESE 13:38:27 10° S
Okean 3 Rocket 4.4 13:31:47 10° SW 13:35:44 30° WNW 13:39:41 10° NNW
STARLINK-21 4.3 13:35:01 27° WNW 13:36:25 35° NW 13:40:15 10° NNE
COSMO-SKYMED 1 2.5 13:35:31 10° S 13:39:49 68° WSW 13:44:09 10° NNW
STARLINK-76 4.5 13:40:10 24° WNW 13:41:47 32° NNW 13:45:32 10° NNE
ATLAS 2AS CENTAUR R/B 2.8 13:34:32 10° NNW 13:42:08 88° WSW 13:49:01 10° SSE
STARLINK 4.5 13:41:48 23° WNW 13:43:29 31° NNW 13:47:12 10° NNE
Cosmos 1400 Rocket 4.3 13:42:32 10° N 13:46:21 38° ENE 13:50:05 10° SSE
NOAA 6 4.1 13:41:49 10° NNE 13:46:58 83° ESE 13:52:05 10° SSW
METEOR-M 4.1 13:41:47 10° N 13:47:08 78° WNW 13:52:27 10° SSW
FENGYUN 3A 3.6 13:43:03 10° N 13:48:29 80° WNW 13:53:52 10° SSW
Cosmos 1238 Rocket 4.3 13:43:01 10° S 13:49:37 75° E 13:55:43 10° N
Cosmos 372 Rocket 4.3 13:48:49 10° SW 13:53:40 41° WNW 13:58:32 10° N
BREEZE-M DEB (TANK) 3.3 13:52:28 15° NW 13:54:33 34° NNE 13:57:10 10° E
CZ-4B R/B 3.2 13:51:21 10° NNE 13:56:47 81° WNW 14:02:18 10° SSW
ALOS 2.3 13:53:00 10° N 13:57:35 56° WNW 14:02:08 10° SSW
Cosmos 1816 Rocket 4.5 13:51:45 10° N 13:58:03 80° W 14:04:16 10° S
Radarsat Rocket 4.4 13:53:36 10° NNE 13:59:25 69° ESE 14:05:27 10° S
Cosmos 2333 Rocket 4.2 13:54:35 10° N 13:59:27 27° ENE 14:04:17 10° ESE
USA 116 3.3 13:56:48 10° S 13:59:55 57° W 14:03:20 10° NNW
Tsikada Rocket 4.0 13:53:35 10° N 13:59:59 82° W 14:06:16 10° S
CZ-2C R/B 4.0 13:57:52 10° NW 14:00:00 13° WNW 14:00:05 13° WNW
Cosmos 2219 Rocket 4.2 13:56:51 10° N 14:01:35 26° ENE 14:06:17 10° ESE
SMAP 4.5 13:58:44 10° NNE 14:03:11 43° E 14:07:35 10° S
CZ-3B R/B 3.1 14:05:31 10° SW 14:09:19 19° S 14:11:52 10° SE
Abrixas rocket 3.7 14:08:06 12° WNW 14:09:55 19° NNW 14:12:11 10° NNE
Cosmos 1408 4.0 14:09:07 10° WSW 14:11:41 18° WNW 14:14:14 10° NNW
Okean O Rocket 2.0 14:13:23 10° N 14:17:26 39° WNW 14:21:28 10° SW
Cosmos 1437 3.8 14:15:07 10° SW 14:17:34 22° WNW 14:20:03 10° NNW
Cosmos 2228 Rocket 3.1 14:13:06 10° NNW 14:17:40 70° W 14:22:13 10° S
Meteor 1-26 Rocket 4.2 14:14:58 10° N 14:20:40 80° W 14:26:10 10° S
Cosmos 1048 Rocket 4.1 14:15:29 10° NNW 14:20:48 63° WSW 14:26:02 10° S
Cosmos 972 Rocket 4.1 14:18:28 10° SSW 14:23:22 56° WNW 14:28:44 10° N
STARLINK-67 2.9 14:21:05 10° NW 14:23:41 57° NE 14:26:15 10° ESE
IRS-1C Rocket 4.4 14:18:33 10° NNE 14:23:50 78° ESE 14:29:05 10° S
Cosmos 1151 Rocket 4.2 14:21:46 10° NW 14:25:08 22° W 14:28:29 10° SW
